#timestamp,LO_Frequency,Hit,StdDev 
1588965155.7,286047026.4,P
1588965175.5,286047025.9,P
1588965195.3,286047028.4,P
1588965215.2,286047027.0,Y
1588965235.0,286046999.8,P
1588965235.9,286046999.8,N
1588965255.7,286047002.3,N
1588965275.6,286047002.3,N
1588965295.4,286047003.9,N
1588965315.3,286047003.6,N
1588965335.1,286047005.9,N
1588965336.0,286047005.9,N
1588965355.8,286047005.4,N
1588965375.7,286047004.5,N
1588965395.5,286047007.0,N
1588965415.3,286047006.6,N
1588965435.2,286047009.0,N
1588965455.0,286047006.2,N
1588965455.9,286047006.2,N
1588965475.8,286047008.9,N
1588965495.6,286047010.7,N
1588965515.4,286047010.7,N
1588965535.3,286047010.3,N
1588965555.1,286047010.6,N
1588965575.8,286047010.0,N
1588965595.7,286047012.3,N
1588965615.5,286047010.9,N
1588965635.4,286047013.4,N
1588965655.2,286047012.9,N
1588965675.0,286047015.5,N
1588965675.9,286047015.5,N
1588965695.8,286047014.9,N
1588965715.6,286047014.4,N
1588965735.4,286047014.4,N
1588965755.3,286047014.9,Y
1588965775.1,286047007.4,P
1588965795.9,286047008.6,P
1588965815.7,286047008.2,P
1588965835.5,286047007.7,Y
1588965855.4,286047002.5,P
1588965875.2,286047004.0,N
1588965895.1,286047002.0,N
1588965896.0,286047002.0,N
1588965915.8,286047002.6,N
1588965935.6,286047001.6,N
1588965955.5,286047001.3,N
1588965975.3,286047004.0,N
1588965995.1,286047002.9,N
1588966015.9,286047006.0,Y
1588966035.7,286047000.0,P
1588966055.6,286046999.8,N
1588966075.4,286047001.4,N
1588966095.2,286047004.3,Y
1588966115.1,286047001.5,P
1588966116.0,286047001.5,P
1588966135.8,286047002.0,P
1588966155.7,286047001.6,Y
1588966175.5,286047001.5,P
1588966195.3,286047001.7,P
1588966215.2,286047002.5,P
1588966235.9,286047001.8,Y
1588966255.7,286047000.6,P
1588966275.6,286047000.0,N
1588966295.4,286047002.1,N
1588966315.3,286047002.2,N
1588966335.1,286047001.7,N
1588966336.0,286047001.7,N
1588966355.8,286047003.9,Y
1588966375.7,286047001.4,P
1588966395.5,286047003.1,P
1588966415.3,286047002.9,P
1588966435.2,286047003.2,Y
1588966455.0,286047002.7,P
1588966455.9,286047002.7,P
1588966475.8,286047002.1,P
1588966495.6,286047003.6,Y
1588966515.4,286047002.2,P
1588966535.3,286047003.8,P
1588966555.1,286047002.9,P
1588966575.9,286047005.4,Y
1588966595.7,286047001.4,P
1588966615.5,286047004.3,P
1588966635.4,286047005.9,P
1588966655.2,286047005.5,Y
1588966675.1,286047002.4,P
1588966676.0,286047002.4,P
1588966695.8,286047002.8,P
1588966715.6,286047002.5,Y
1588966735.5,286046998.6,P
1588966755.3,286047000.1,N
1588966775.2,286047002.5,N
1588966795.9,286047001.8,N
1588966815.7,286047003.3,N
1588966835.6,286047005.8,Y
1588966855.4,286047003.5,P
1588966875.2,286047003.3,P
1588966895.1,286047003.4,P
1588966896.0,286047003.4,Y
1588966915.8,286047001.5,P
1588966935.7,286047003.9,P
1588966955.5,286047003.5,P
1588966975.3,286047005.1,Y
1588966995.2,286047003.7,P
1588967015.0,286047005.3,P
1588967015.9,286047005.3,P
1588967035.8,286047004.5,Y
1588967055.6,286047001.5,P
1588967075.4,286047003.3,N
1588967095.3,286047004.6,P
1588967115.1,286047005.9,Y
1588967135.9,286046999.9,P
1588967155.7,286046999.9,N
1588967175.5,286047002.1,N
1588967195.4,286047001.7,N
1588967215.2,286047003.9,N
1588967235.0,286047003.5,N
1588967235.9,286047003.5,N
1588967255.8,286047005.3,Y
1588967275.6,286047005.5,P
1588967295.5,286047007.0,P
1588967315.3,286047008.8,P
1588967335.1,286047009.2,Y
1588967355.9,286047003.8,P
1588967375.7,286047005.6,P
1588967395.6,286047006.4,P
1588967415.4,286047009.0,Y
1588967435.2,286047004.1,P
1588967455.1,286047004.0,P
1588967456.0,286047004.0,P
1588967475.8,286047005.7,Y
1588967495.7,286047002.0,P
1588967515.5,286047005.6,P
1588967535.3,286047007.4,P
1588967555.2,286047008.5,Y
1588967575.0,286047005.7,P
1588967575.9,286047005.7,P
1588967595.8,286047004.8,P
1588967615.6,286047003.2,Y
1588967635.4,286046998.0,P
1588967655.3,286046997.6,N
1588967675.1,286046995.4,N
1588967695.8,286046997.7,N
1588967715.7,286046997.8,N
1588967735.5,286046996.8,N
1588967755.4,286046998.9,N
1588967775.2,286047000.8,N
1588967795.0,286046999.7,N
1588967795.9,286046999.7,N
1588967815.8,286047001.9,N
1588967835.6,286047003.7,N
1588967855